Wind_Speed
18 18 18 18 19 19 20 20 20 20 19 19 20 20 20 21 21 21 21 22 22 22 23 23 23 24 25 26 29 30 33 34 34 31 19 12 11 9 9 9 9 9 12 15 16 14 12 11 10 13 11 6 3 3 4 5 4 4 5 8 9 11 13 10 9 8 6 5 7 7 9 11 10 10 8 8 11 12 13 9 3 5 5 7 17 30 36 35
18 18 19 19 19 20 20 20 20 19 19 20 20 20 21 21 21 21 22 22 22 22 22 22 22 22 23 24 27 29 32 33 30 25 17 6 6 5 3 4 4 6 12 16 15 11 7 7 7 7 5 2 3 3 4 4 5 6 5 8 11 12 11 8 8 6 6 9 8 6 9 10 10 8 6 10 12 13 12 4 3 7 10 9 18 29 32 35
18 19 19 19 20 20 20 20 20 20 20 21 21 21 21 21 21 21 21 22 21 21 21 22 21 21 22 22 25 27 29 28 19 13 6 4 6 5 2 1 2 5 12 14 12 9 9 9 7 4 3 4 3 4 5 4 6 8 6 8 13 12 8 7 9 7 5 7 9 9 11 11 12 9 6 9 11 13 11 5 4 8 12 13 16 20 26 30
19 19 20 20 20 20 20 21 21 21 21 21 22 22 22 22 21 21 21 21 21 21 20 21 21 20 21 21 23 26 24 16 8 4 1 2 6 8 5 5 5 6 10 10 8 8 10 11 7 4 3 4 3 4 7 6 5 5 8 11 12 10 9 9 7 6 8 8 7 7 8 10 11 9 8 9 8 9 7 9 10 14 17 19 17 16 19 21
20 20 21 21 21 21 21 22 22 22 22 22 23 22 22 22 22 22 22 21 21 20 20 20 20 19 20 20 22 23 17 6 2 3 2 1 9 12 9 6 6 7 9 8 8 9 11 9 5 3 3 3 3 4 7 9 6 5 10 14 12 8 9 9 6 7 8 9 9 8 8 7 6 7 10 11 11 8 6 11 13 19 23 23 22 18 17 17
21 21 22 22 22 22 22 23 23 23 23 23 24 23 22 22 22 22 21 21 21 20 20 19 19 19 19 19 21 18 7 1 5 5 5 6 12 14 10 5 5 6 7 9 9 8 7 5 4 2 2 3 5 6 7 8 8 8 12 14 13 10 8 6 8 11 9 9 10 10 8 5 6 7 8 10 13 12 9 14 15 19 24 25 23 20 18 18
22 22 22 22 22 23 23 23 23 23 24 24 24 24 24 23 23 22 22 21 20 20 19 18 18 17 18 19 17 9 3 8 14 9 7 12 13 13 10 4 4 5 6 8 8 6 5 5 4 3 3 4 6 8 8 9 10 11 12 13 12 11 11 9 9 11 12 15 13 11 10 9 11 8 5 7 11 13 10 15 18 20 23 24 23 22 22 21
22 23 23 23 24 24 24 24 24 25 25 25 25 25 24 24 23 23 22 21 20 20 19 17 17 15 17 16 10 4 5 12 15 8 7 13 13 12 11 7 6 7 7 9 8 6 4 5 6 4 4 5 6 8 9 10 12 14 14 14 10 9 11 11 12 12 13 14 12 12 13 16 14 7 7 9 10 12 7 16 20 19 20 21 22 23 21 20
23 23 24 24 24 24 24 25 25 25 26 26 26 26 25 25 24 24 22 21 20 19 18 17 15 14 14 11 5 5 7 9 8 6 8 12 11 12 13 11 8 7 8 11 12 10 5 3 6 5 4 6 7 9 10 9 9 10 12 12 11 11 10 10 14 16 13 10 9 12 14 18 13 5 9 12 14 12 5 15 19 18 20 19 20 21 19 19
23 23 24 24 24 25 25 25 25 26 27 27 27 27 26 25 25 24 23 21 20 19 18 16 14 13 12 8 2 4 9 8 6 5 9 13 10 9 12 14 13 10 8 10 11 8 4 4 6 4 5 6 6 8 10 11 9 9 11 11 12 14 13 11 13 16 15 10 12 14 14 16 12 4 7 9 10 6 5 14 17 18 20 18 17 17 16 16
24 24 24 25 25 25 25 26 26 27 28 28 28 28 28 27 26 25 23 22 21 20 18 15 13 11 9 5 3 7 10 8 7 10 15 17 13 10 11 13 15 13 10 9 11 11 8 9 8 5 3 4 7 9 9 9 9 12 13 13 14 15 14 14 15 16 13 10 13 15 13 15 11 8 11 8 4 4 11 15 17 18 18 17 16 14 13 13
24 24 25 25 26 26 26 26 27 28 28 29 30 29 29 28 27 26 23 22 21 19 17 14 10 8 8 5 9 14 12 12 16 20 19 17 15 13 11 12 13 14 12 8 10 18 17 14 10 5 3 5 8 8 8 10 11 13 12 12 14 12 15 17 17 16 13 10 10 10 9 14 15 15 14 8 4 5 11 16 18 18 17 17 16 14 12 12
25 25 25 25 26 26 27 27 28 29 29 31 32 31 31 30 29 28 26 25 23 19 14 11 7 7 5 4 13 19 20 21 24 25 20 16 16 17 14 12 12 13 15 13 14 20 21 17 11 6 5 6 6 6 10 13 11 11 10 8 9 9 12 15 16 16 15 13 8 9 7 12 15 17 13 7 6 7 9 12 14 15 15 15 14 14 13 13
25 25 26 26 26 26 27 28 28 29 30 31 32 33 33 32 33 32 31 27 20 13 8 6 5 7 5 7 18 21 20 20 24 25 20 15 16 18 15 13 13 14 17 21 23 23 22 20 12 6 6 5 6 8 10 11 7 7 8 6 6 7 8 10 14 17 16 15 10 9 8 10 10 14 12 7 7 10 10 9 10 11 12 12 12 12 13 13
26 26 26 26 27 27 27 28 28 29 31 31 33 35 35 35 34 32 29 19 10 6 4 4 7 7 3 10 18 18 15 15 20 22 15 16 16 12 13 13 14 16 19 22 24 24 22 17 9 4 4 5 6 7 7 7 5 4 5 6 6 7 6 7 12 17 17 14 11 10 7 8 9 12 10 7 8 9 10 10 9 11 12 11 11 10 11 12
26 27 26 26 27 27 28 28 28 30 31 33 34 35 35 32 29 26 19 7 3 4 7 5 10 8 1 7 11 14 12 11 15 15 13 18 18 14 15 14 14 17 17 17 19 20 18 11 5 4 4 5 5 5 4 5 5 3 4 5 5 6 6 6 9 16 18 13 12 12 6 4 8 10 9 8 8 8 8 9 10 12 12 12 11 10 10 10
26 27 26 27 27 28 28 28 28 29 31 35 35 34 31 25 20 15 6 6 7 7 8 5 9 8 4 8 10 11 9 8 11 14 15 17 20 21 17 10 10 12 9 11 13 11 10 6 3 3 4 4 4 3 3 5 5 3 3 4 6 6 6 6 7 11 17 16 14 13 7 4 7 7 8 9 8 8 7 7 9 10 11 11 10 10 10 10
27 27 27 27 27 28 29 29 29 30 32 35 33 32 26 18 13 8 9 11 9 6 4 2 6 5 5 7 7 7 6 11 15 16 18 17 20 24 19 10 6 4 3 6 7 3 4 3 3 3 3 4 4 5 5 6 4 3 3 3 5 6 6 8 7 7 14 18 16 13 9 7 8 8 8 9 9 9 8 7 7 8 10 11 10 11 11 11
27 27 28 28 28 29 29 30 30 29 32 33 29 27 18 11 8 7 13 10 6 3 2 3 6 3 5 6 8 9 11 19 21 20 22 17 18 21 19 13 6 1 1 2 2 2 2 2 3 4 4 4 6 7 8 8 8 9 7 4 5 6 6 8 9 7 11 15 16 15 9 7 9 10 8 8 8 8 8 7 6 6 8 11 11 11 11 12
28 28 28 28 29 29 30 31 31 30 31 31 27 20 11 8 5 2 4 2 5 8 8 7 9 8 11 11 11 14 17 21 17 15 20 13 9 13 11 8 4 2 3 2 3 3 2 4 4 5 6 7 8 9 9 9 11 13 11 8 7 7 6 7 10 11 10 10 14 16 10 7 9 11 10 7 7 8 8 8 7 7 6 9 12 13 13 13
29 29 28 29 29 30 31 32 33 31 27 23 17 8 3 5 3 2 6 7 12 15 15 14 14 15 17 16 18 17 12 14 12 13 20 13 6 8 5 5 4 3 3 4 3 3 2 5 6 8 9 10 10 10 10 10 11 12 10 8 7 7 8 7 11 12 10 8 10 14 13 10 9 9 10 7 7 8 8 8 8 8 8 7 12 14 14 12
30 29 30 30 30 32 33 32 31 26 18 13 9 2 2 4 4 5 6 7 11 11 14 16 15 17 20 23 26 18 6 9 13 14 18 11 5 6 3 4 5 4 3 2 2 3 4 6 9 10 9 10 10 10 11 13 12 10 7 6 6 6 8 8 10 10 8 7 7 12 14 11 10 9 9 9 8 7 7 9 9 9 10 7 10 13 13 11
31 30 31 31 32 33 32 31 27 17 13 13 10 5 3 6 8 11 7 4 10 7 8 10 10 11 14 17 19 12 7 8 9 10 11 7 5 5 4 4 5 4 3 4 4 4 4 6 9 10 9 10 11 10 11 12 10 8 6 5 6 7 6 6 7 7 6 6 5 9 10 8 9 8 10 11 9 6 7 9 9 9 11 10 10 13 14 13
32 32 31 32 33 31 29 28 18 10 13 13 9 5 6 8 10 11 6 2 7 7 5 7 7 6 8 10 8 7 7 6 6 6 7 7 3 3 3 4 4 4 5 6 7 7 7 7 7 9 10 10 11 11 11 9 7 8 8 7 8 9 8 7 7 8 5 6 5 6 5 6 9 11 11 10 7 8 9 8 8 8 10 10 9 12 15 16
33 33 33 34 31 28 28 21 10 11 15 7 6 11 10 10 11 10 6 1 4 5 4 4 5 4 6 8 6 5 4 5 6 3 2 2 1 1 1 1 2 6 8 7 7 7 9 9 7 10 11 10 11 10 10 9 7 8 8 9 11 10 11 11 10 9 4 6 6 8 5 5 8 12 12 8 7 11 12 10 10 8 10 10 7 11 14 16
34 33 33 32 27 26 22 10 8 16 12 2 9 16 14 13 12 9 5 1 3 3 2 1 4 2 4 3 3 1 2 4 4 1 3 1 4 2 3 1 2 6 7 6 5 4 7 9 8 11 11 10 10 8 10 10 7 8 7 8 11 12 12 13 10 6 3 5 5 8 8 3 4 10 12 10 10 13 13 13 13 10 10 10 8 10 13 14
35 33 32 30 24 21 14 6 12 15 5 3 12 14 15 15 11 7 4 1 3 2 2 2 2 1 3 3 1 2 4 5 2 2 3 1 2 3 5 4 3 4 4 3 4 3 5 9 9 10 11 9 8 7 9 10 8 8 6 6 10 11 12 12 8 5 5 4 6 7 8 3 3 9 11 12 12 14 14 15 15 12 11 10 10 12 15 16
35 34 32 29 21 13 9 10 13 10 4 9 13 13 16 14 8 4 3 2 2 1 1 1 1 1 2 4 4 2 6 5 2 1 2 3 2 1 5 7 5 5 5 4 6 4 4 8 8 8 9 7 7 8 10 11 10 9 7 8 9 9 10 9 6 5 4 2 6 6 6 5 5 6 10 13 15 16 15 16 17 14 12 10 11 15 17 18
36 34 30 26 16 6 5 8 9 7 8 12 12 14 16 11 4 3 3 1 2 1 1 1 1 3 3 4 4 5 5 2 2 2 2 5 6 4 4 5 5 6 5 6 7 6 5 6 5 7 7 6 7 9 11 11 10 9 8 10 11 9 9 7 5 5 3 2 6 7 6 7 6 4 9 13 14 16 14 14 16 15 13 11 12 16 18 17
37 32 26 21 13 5 5 8 7 7 10 12 13 15 14 6 3 3 1 1 1 2 2 0 3 7 8 7 5 5 4 3 2 2 1 4 5 4 3 2 3 3 4 5 6 8 8 6 5 7 7 8 9 9 10 11 12 10 6 8 10 8 7 5 5 3 3 4 8 9 7 7 6 5 9 11 12 13 11 12 15 14 14 12 12 16 18 16
37 28 20 15 11 6 5 6 5 7 10 13 14 13 8 3 2 2 2 1 3 5 3 2 4 8 10 10 6 4 3 3 2 0 2 3 2 2 1 1 2 1 3 4 4 7 9 7 5 6 8 10 9 9 9 10 12 10 6 5 6 4 4 4 3 3 3 6 8 9 7 8 9 7 8 11 13 15 14 14 15 14 14 12 12 16 17 16
34 23 14 9 8 8 7 4 4 6 9 12 12 7 3 3 2 1 1 3 4 3 3 5 7 9 12 11 6 3 3 3 3 4 3 2 3 3 3 3 3 1 2 3 3 4 6 6 7 8 9 10 8 7 6 6 8 8 6 4 3 3 3 3 2 3 4 5 7 8 7 8 9 7 8 12 14 15 15 15 15 14 14 12 13 16 16 15
29 18 10 6 8 11 10 7 5 6 9 12 8 3 3 2 2 1 3 3 2 4 5 7 10 12 13 9 4 2 1 2 2 3 4 3 3 4 5 6 5 3 2 2 1 3 3 4 6 8 7 7 8 5 3 4 6 7 6 5 4 3 2 3 3 3 3 4 9 11 8 5 4 5 10 15 16 15 15 16 15 14 13 13 14 17 16 15
24 14 9 8 10 12 11 8 6 6 10 9 5 3 2 2 2 2 3 2 2 6 6 8 12 13 9 4 2 2 1 2 3 3 4 3 2 3 4 6 7 5 2 1 1 2 2 3 5 6 4 5 7 7 6 4 4 5 4 5 5 4 3 3 3 3 4 5 8 8 6 5 5 5 9 13 14 13 14 15 13 11 12 12 14 16 16 16
19 11 11 10 11 10 8 6 4 6 8 6 4 2 3 2 2 3 3 3 3 5 8 10 10 8 6 2 2 1 1 2 3 3 3 3 3 3 2 4 8 6 3 1 2 2 1 4 6 6 6 4 4 6 7 5 4 2 3 5 6 4 3 2 3 5 6 4 5 4 4 5 5 5 9 11 9 10 12 14 13 11 10 12 13 15 16 15
19 11 8 7 9 9 6 5 4 4 3 4 4 1 1 2 3 2 2 4 4 6 10 10 5 3 4 2 2 1 3 3 3 2 2 3 4 5 4 4 7 9 6 3 2 1 0 3 6 7 8 6 6 6 4 4 3 1 2 5 4 5 4 3 3 4 3 3 5 2 3 4 2 3 9 12 10 10 11 12 13 13 12 12 13 14 14 15
22 15 8 5 6 5 5 6 6 3 2 4 2 2 1 2 3 1 2 3 4 6 8 6 2 1 3 3 3 4 2 2 2 2 1 1 3 5 6 4 5 10 10 6 2 2 2 3 7 7 6 5 4 5 3 3 4 1 1 2 0 4 7 3 2 5 1 2 4 1 4 3 1 2 6 8 9 9 9 10 11 12 13 14 14 14 15 16
21 13 7 5 3 1 7 8 6 2 3 2 2 4 2 3 3 2 2 2 3 5 4 3 2 1 4 5 4 5 6 4 2 3 2 1 2 4 4 4 6 10 12 8 3 2 2 2 6 4 3 6 4 1 1 3 5 5 2 2 2 3 6 2 2 4 1 2 4 3 3 3 3 4 4 5 9 9 9 9 10 12 13 13 14 16 17 16
13 6 4 5 2 3 9 10 4 3 3 1 2 3 2 4 3 1 1 1 1 3 3 3 2 2 5 6 6 6 5 4 5 5 2 1 2 4 3 3 5 8 11 10 4 3 2 1 3 3 5 7 4 2 1 3 4 4 1 1 1 2 3 2 3 3 2 2 2 3 2 2 4 5 4 6 9 11 11 10 10 13 14 13 14 15 15 15
7 2 2 4 3 5 9 7 3 4 1 1 1 3 3 5 5 0 3 2 1 1 3 3 3 3 4 6 7 5 2 3 5 4 1 1 2 5 4 1 1 3 8 10 5 2 1 2 2 5 8 5 2 0 3 3 3 3 1 1 2 1 1 1 4 3 2 2 2 1 1 4 6 4 5 8 9 10 12 12 11 13 15 15 14 15 15 14
5 2 1 5 3 6 4 2 2 1 2 2 2 4 4 6 7 2 3 3 2 3 4 4 5 4 5 6 6 5 3 3 4 2 1 2 1 2 3 3 5 3 4 7 4 1 1 1 1 3 5 2 3 4 0 1 1 2 2 3 4 2 1 1 3 3 1 2 3 3 1 6 6 2 5 9 8 10 12 13 12 13 15 15 14 17 17 16
3 1 3 11 4 4 1 3 2 1 1 3 4 6 7 7 7 4 0 2 2 3 4 4 5 4 5 5 4 5 4 3 4 2 2 4 3 4 4 5 7 7 0 4 2 1 2 2 0 3 4 5 8 8 1 1 4 4 3 3 4 3 2 3 2 4 3 2 1 3 1 6 5 6 8 8 8 9 11 14 14 14 15 14 14 16 17 16
2 2 5 15 10 1 2 3 3 3 2 5 7 8 8 5 5 5 3 1 2 2 2 3 3 2 3 3 4 5 4 3 4 2 3 5 6 6 6 8 10 6 1 3 1 1 1 2 0 3 4 5 7 5 1 2 2 4 4 4 3 3 3 4 3 3 4 4 1 2 2 5 5 10 10 9 8 4 8 13 14 13 12 12 13 14 15 15
2 4 4 12 15 6 4 2 4 4 5 8 10 10 7 3 4 6 4 3 2 2 2 3 2 3 3 3 4 4 3 2 3 3 3 3 4 8 9 11 9 2 2 1 1 0 1 0 1 2 3 3 3 2 3 2 1 2 4 5 5 5 3 2 4 2 2 3 1 2 3 6 6 11 12 11 10 6 2 9 13 13 11 10 11 12 14 14
4 2 3 9 14 7 4 1 2 3 5 9 10 10 7 4 5 6 5 4 3 3 3 4 4 5 5 3 5 6 3 3 3 3 3 2 4 8 8 11 10 4 6 5 3 2 0 1 2 3 2 1 1 1 1 1 2 2 4 6 5 5 5 3 2 2 1 4 2 3 3 7 8 14 16 15 13 9 6 0 8 10 9 9 9 11 14 15
2 2 3 6 8 6 2 0 2 2 4 7 7 7 6 7 7 4 3 3 3 3 4 5 5 5 4 4 7 7 3 5 4 3 4 4 4 4 7 11 7 5 9 9 6 3 2 1 2 3 3 2 3 4 1 2 3 3 5 8 6 5 5 4 1 1 2 4 4 3 4 6 10 15 16 15 12 9 9 6 3 5 6 7 9 11 13 14
3 2 3 4 4 4 4 3 5 5 4 4 4 4 6 9 9 6 1 2 4 6 4 3 3 3 6 8 7 5 4 4 5 4 4 5 4 5 10 9 0 7 8 8 5 2 3 1 2 5 5 6 7 8 6 3 4 4 6 9 8 7 3 3 1 3 2 2 4 4 6 6 8 13 14 13 11 8 7 8 6 5 6 6 7 11 12 11
3 0 1 2 2 3 4 5 8 9 10 7 3 3 7 10 11 10 4 4 7 6 1 3 5 7 11 10 4 3 6 6 4 3 3 3 3 5 7 5 4 5 5 6 3 1 2 1 3 3 4 7 8 8 6 3 4 4 5 8 8 8 5 3 2 4 2 3 4 5 5 4 6 12 12 11 10 7 6 6 5 5 8 7 6 8 11 11
2 1 0 2 1 2 4 8 10 10 11 8 3 4 9 11 12 10 7 7 9 4 1 7 12 14 16 12 3 2 5 6 4 2 3 4 4 4 4 4 3 2 3 3 1 0 2 2 3 1 4 6 5 5 3 1 3 5 6 7 6 7 6 2 2 1 6 5 3 2 3 2 4 8 10 10 9 6 5 7 8 8 9 9 8 7 7 9
2 1 2 1 2 3 4 6 7 7 7 6 4 5 7 9 12 13 10 8 9 7 7 11 16 17 17 13 6 4 6 7 8 6 4 4 4 2 1 1 1 3 4 2 0 2 1 2 3 1 2 5 4 4 4 1 1 3 6 8 8 8 7 3 0 2 4 2 1 2 2 4 3 5 9 9 8 7 9 11 10 9 9 9 10 8 7 6
4 4 4 2 3 4 4 4 5 5 4 4 5 7 8 9 12 15 12 8 7 7 9 13 16 15 13 12 10 8 8 9 10 10 8 6 4 3 1 0 1 3 4 1 1 2 1 1 2 3 3 4 4 7 7 3 3 3 6 7 7 5 3 0 1 1 2 2 2 3 3 3 4 5 8 8 9 11 12 11 9 8 9 10 10 8 7 7
8 6 4 2 3 3 4 5 5 4 3 4 6 8 9 10 12 13 10 6 6 10 11 11 14 12 10 11 12 12 13 11 10 10 8 7 7 7 6 6 5 2 0 0 1 1 1 0 2 2 2 3 4 5 5 4 6 4 4 4 3 1 3 4 4 5 4 1 1 2 2 3 4 4 5 7 10 10 10 10 8 8 8 8 9 8 7 6
Wind_Direction
342 341 340 339 338 336 335 334 334 332 331 330 329 328 326 327 325 325 324 323 325 323 324 326 327 327 327 326 325 326 326 322 320 316 302 295 315 307 282 268 265 280 290 291 285 284 288 284 288 293 296 290 227 217 232 215 225 207 191 221 226 222 222 209 201 203 186 200 214 203 204 204 213 223 222 232 232 225 234 255 300 25 41 163 153 141 141 141
342 341 339 337 335 334 332 331 331 330 329 327 326 324 323 323 322 322 321 321 322 322 323 324 325 324 324 325 323 325 325 321 315 301 289 318 354 318 270 241 244 271 278 280 282 277 269 265 272 289 292 265 232 211 212 204 206 212 209 217 225 226 221 212 212 208 180 203 229 239 236 222 216 217 208 225 233 232 232 250 56 75 72 106 133 137 139 141
340 338 337 335 332 332 330 329 330 329 327 325 324 322 321 320 319 319 319 318 318 318 319 319 322 321 323 326 323 324 324 319 309 286 280 48 40 18 29 308 286 272 269 274 285 271 255 266 272 287 296 271 252 227 228 209 202 220 221 222 228 228 231 228 220 228 225 211 211 227 244 244 235 222 209 223 226 234 224 173 131 117 117 133 141 142 141 143
338 336 336 335 332 331 331 330 329 327 325 323 321 321 319 317 317 316 316 317 315 316 316 317 320 319 322 325 322 324 324 315 295 271 235 71 2 355 340 325 323 279 266 271 286 279 264 270 275 276 272 272 264 251 243 221 213 225 219 231 234 224 232 233 226 242 255 256 233 223 239 246 249 241 237 235 233 244 210 176 170 152 148 150 153 155 149 148
339 336 335 334 332 331 331 329 327 326 325 323 320 318 317 316 315 314 314 314 313 314 315 316 318 320 322 324 324 325 326 317 280 277 204 258 329 331 318 318 319 289 275 272 281 287 273 261 262 263 245 263 269 255 246 231 232 254 239 242 245 233 234 230 231 248 251 267 269 257 246 238 249 248 246 242 239 246 193 188 183 160 157 156 160 164 156 156
337 335 334 331 331 329 328 326 324 324 323 320 318 317 316 315 314 314 314 312 312 311 313 315 316 321 323 325 324 319 319 276 288 276 235 271 305 308 299 310 329 299 276 275 283 292 284 253 233 244 240 251 256 253 264 251 230 246 251 246 246 244 248 234 224 240 252 264 264 260 259 253 254 246 238 231 235 243 199 184 181 164 162 160 160 161 160 163
334 333 332 330 329 328 327 325 322 322 320 319 317 317 316 314 313 312 312 312 311 309 311 313 315 320 323 327 324 306 222 261 283 288 272 274 282 289 280 274 315 291 265 267 271 279 285 274 250 236 248 252 257 258 267 268 246 241 250 249 249 247 251 254 240 235 240 250 253 260 278 270 254 256 248 226 233 244 210 178 176 170 165 160 158 162 166 169
334 332 331 330 327 327 327 324 323 321 319 317 316 316 315 314 313 311 311 310 309 309 309 311 314 319 324 330 331 306 235 258 281 309 313 290 279 275 260 249 268 263 258 259 250 250 266 282 273 253 248 249 257 264 259 264 258 245 245 250 255 255 250 255 257 247 236 244 253 258 269 265 256 266 275 261 258 269 236 179 176 169 163 160 161 165 167 170
333 332 331 330 328 327 326 323 322 320 319 317 314 315 313 313 312 310 310 308 308 308 305 308 309 314 321 322 326 305 263 260 295 325 328 318 296 268 252 246 256 252 255 262 252 246 249 265 267 265 287 279 265 270 262 251 255 252 252 254 253 257 254 247 252 251 242 239 249 253 256 262 266 286 278 259 250 270 253 180 170 159 162 163 164 165 167 167
333 332 331 330 329 327 325 323 321 320 319 316 313 313 312 312 310 308 308 306 306 304 303 303 304 311 311 300 295 273 269 287 311 292 308 322 313 279 261 257 261 257 255 270 265 248 247 273 287 307 307 295 279 282 271 252 262 276 275 267 250 248 250 246 248 252 250 236 234 244 250 260 269 265 261 258 240 233 164 174 163 154 162 163 164 166 166 164
334 333 331 330 329 327 326 324 321 321 319 316 314 312 311 311 309 308 306 304 303 302 301 297 298 304 293 284 242 246 273 293 292 293 302 307 304 288 276 269 268 272 272 280 288 287 288 293 310 325 297 318 320 308 291 280 291 283 277 275 258 245 242 241 244 249 252 242 228 232 248 262 264 243 239 250 252 149 150 166 158 158 163 159 164 164 163 163
334 332 332 330 328 326 325 324 322 320 318 316 314 312 312 311 308 306 302 300 299 297 296 292 288 280 275 270 232 245 278 290 295 304 297 290 290 279 274 276 274 281 281 272 283 286 284 289 302 301 288 323 321 310 304 317 320 292 278 273 266 253 238 232 235 243 246 246 219 202 238 253 247 244 241 232 215 147 157 168 160 163 164 159 165 163 166 168
334 332 332 330 328 326 325 324 322 320 318 316 314 313 313 309 306 303 301 300 298 294 289 283 275 254 258 253 245 263 286 292 301 303 286 275 280 273 266 270 275 280 277 264 263 271 272 276 282 279 288 299 293 295 300 306 308 292 281 264 265 263 241 225 226 236 239 245 214 164 218 245 239 245 245 231 198 149 155 177 166 164 165 161 166 167 169 168
334 333 331 329 328 327 325 324 322 320 319 317 315 314 312 309 307 306 308 305 299 294 275 254 238 222 213 254 268 283 298 300 296 286 275 267 271 274 270 268 273 275 272 264 259 261 261 261 264 269 273 264 269 284 290 293 290 286 287 266 241 242 244 220 219 227 231 243 219 176 224 241 240 248 240 227 204 164 159 183 176 169 166 163 167 169 170 171
334 332 331 330 328 327 326 324 322 321 320 319 317 314 313 313 313 315 316 307 296 285 233 202 204 206 244 268 277 298 307 295 278 274 272 263 262 271 268 258 260 265 265 259 255 255 250 246 249 255 255 244 258 274 281 288 282 260 263 262 232 225 243 227 219 220 224 239 218 193 226 238 234 246 238 215 197 170 162 175 177 174 169 163 167 168 170 175
333 332 330 329 328 327 326 324 324 322 320 319 318 316 317 321 323 322 314 280 224 184 169 183 203 196 291 273 287 309 294 269 269 284 286 261 247 239 247 250 253 260 264 266 264 252 235 225 226 226 240 244 245 254 278 290 279 243 227 246 246 224 224 229 229 220 218 232 226 209 206 225 232 237 238 225 192 164 165 173 170 174 173 167 168 170 170 169
332 331 329 328 327 326 326 325 324 323 321 321 321 321 324 335 339 331 309 174 147 153 163 172 182 183 252 269 298 306 272 267 283 290 286 262 241 233 239 248 251 256 274 302 297 256 212 196 203 215 228 226 222 225 250 260 252 247 228 244 264 247 222 218 232 225 213 219 230 221 205 223 249 227 218 230 203 169 181 190 172 169 172 171 169 170 170 166
332 330 329 328 326 326 326 324 323 323 323 323 323 323 329 350 1 24 99 124 116 122 163 151 143 162 263 250 266 275 270 302 304 293 284 265 237 229 229 231 240 253 332 336 310 245 175 190 200 215 239 218 218 216 220 242 260 276 247 227 256 256 241 219 222 226 209 214 226 225 213 221 254 242 206 216 211 185 191 205 192 170 163 172 173 168 170 171
333 331 329 328 326 325 324 323 323 323 325 326 327 329 341 7 11 74 102 104 104 115 228 203 167 188 278 250 233 255 289 301 300 295 286 265 227 221 225 232 235 195 69 16 312 279 180 224 216 220 246 225 225 228 228 253 281 291 285 266 254 251 246 225 225 235 211 211 222 224 214 199 230 247 222 205 209 199 195 202 215 200 163 161 174 173 170 175
335 332 330 329 327 325 323 322 321 323 327 327 328 335 357 16 356 65 55 8 226 238 251 225 203 225 267 276 267 273 293 294 287 283 285 277 205 204 219 226 224 193 192 193 266 287 210 233 237 218 230 233 238 244 246 256 265 274 282 283 283 273 259 225 222 236 218 209 222 221 213 194 214 238 234 209 196 204 206 202 215 226 193 158 168 177 173 179
336 334 331 330 329 326 322 320 320 325 330 328 329 338 351 2 0 300 314 283 246 241 246 242 228 236 252 263 273 280 296 294 286 279 280 280 163 170 206 198 205 228 216 206 235 286 256 249 246 227 227 231 239 248 253 260 259 263 270 277 287 281 274 248 226 231 217 209 225 217 211 212 218 235 242 226 195 200 207 207 210 218 220 175 161 174 177 180
337 334 331 331 329 326 321 319 320 326 337 339 340 319 279 0 18 327 319 289 274 241 232 246 239 245 255 259 268 271 273 275 282 286 279 271 169 167 201 189 206 228 221 216 247 284 267 255 253 245 238 233 239 246 248 256 259 261 265 270 276 272 285 274 244 236 214 206 223 214 211 214 220 234 244 238 216 202 197 205 213 210 216 197 160 169 177 173
337 333 332 330 328 325 320 319 322 330 346 340 323 290 304 358 354 340 341 289 297 276 226 234 228 243 260 264 264 246 229 245 252 273 266 238 182 175 184 197 216 227 216 215 226 243 248 248 249 243 237 234 239 241 241 249 254 254 253 256 261 259 275 280 259 256 225 202 198 205 212 212 214 229 240 237 229 220 208 204 216 216 215 206 173 167 172 169
336 334 332 328 328 326 320 322 327 340 341 330 321 331 351 352 352 357 4 245 293 299 249 216 208 227 245 264 265 202 206 227 223 259 233 197 177 163 186 200 211 239 234 225 231 243 251 254 254 245 235 226 230 236 234 238 248 248 240 238 254 259 259 266 283 292 255 214 184 166 201 223 211 216 228 236 236 236 231 215 219 229 228 218 179 167 172 170
335 333 331 329 329 325 322 325 333 342 337 334 8 3 359 351 352 6 16 308 282 279 259 216 193 217 243 260 259 206 210 227 230 263 185 183 0 135 205 186 187 239 240 244 254 258 259 259 263 258 246 227 225 233 229 227 244 253 237 229 245 259 263 267 286 308 285 230 202 160 189 236 214 213 220 223 227 231 236 232 225 222 228 223 180 169 176 174
335 333 331 331 330 328 328 329 332 337 336 352 7 358 356 349 343 358 29 356 303 275 278 254 181 242 296 268 242 254 316 258 237 54 95 324 309 242 246 198 175 233 234 244 253 252 256 250 250 256 251 234 226 229 228 223 237 252 228 216 238 249 255 260 276 298 266 237 229 191 194 224 226 222 219 212 217 224 230 236 230 216 218 215 182 174 178 178
335 333 332 331 334 334 327 311 328 337 339 326 342 349 350 343 334 354 48 63 325 284 280 291 200 286 298 276 336 23 303 272 266 49 104 146 305 274 255 218 182 227 218 233 241 210 232 238 243 256 257 245 229 229 230 218 228 249 229 214 234 237 243 252 260 265 250 276 283 224 186 158 224 224 214 208 216 222 224 230 228 217 213 204 180 178 180 181
334 333 335 336 339 336 305 289 312 325 329 327 335 343 341 333 327 0 75 91 334 274 275 283 232 253 255 306 332 258 269 278 277 326 169 205 249 249 244 223 205 222 201 214 248 241 235 239 244 257 263 252 229 225 225 219 229 246 240 244 248 236 239 247 249 255 250 281 289 246 179 180 228 224 209 208 214 220 221 224 228 220 211 198 177 180 184 183
333 335 340 340 339 343 309 285 286 309 329 330 337 340 331 325 346 43 99 83 351 277 248 218 305 312 305 332 315 253 262 252 207 250 208 236 239 203 225 230 219 239 223 219 251 263 251 247 261 275 280 269 244 227 219 217 231 241 242 257 266 255 241 237 239 262 277 253 261 252 201 204 236 221 203 207 213 218 216 220 227 221 210 196 175 181 187 183
336 339 344 340 332 333 320 286 279 322 336 333 336 332 325 331 51 57 26 0 334 303 294 275 341 319 311 323 311 269 252 213 230 304 217 240 245 208 216 236 216 246 257 246 264 276 273 277 280 270 269 271 265 245 225 219 230 240 246 258 269 261 233 222 220 236 283 265 253 251 227 219 241 223 203 204 207 210 209 217 224 218 208 194 175 181 186 180
339 342 342 335 322 307 296 280 296 336 336 333 333 329 335 13 89 78 21 337 290 300 318 324 315 312 315 321 312 291 276 247 236 236 224 227 233 228 243 259 218 250 296 282 276 281 279 279 268 249 248 256 265 261 239 225 229 233 228 240 270 261 209 210 187 165 229 253 259 260 240 226 237 229 206 204 202 201 204 213 217 210 204 191 176 182 185 179
341 343 336 326 310 281 255 264 317 337 331 331 334 341 29 48 28 92 315 319 298 293 321 315 313 318 317 316 305 306 331 292 220 190 210 209 194 206 200 194 183 174 291 267 270 285 269 253 244 246 247 239 246 264 250 232 233 229 212 206 246 247 193 193 177 182 225 249 260 254 234 227 238 231 202 198 203 204 204 211 211 201 195 185 175 182 184 177
342 340 324 300 296 279 264 277 310 322 322 329 343 15 86 48 23 329 298 325 315 309 319 306 306 310 308 308 301 302 342 298 262 215 207 201 211 226 223 212 184 160 219 221 314 307 286 270 242 242 248 223 220 235 234 231 235 228 207 185 206 222 185 179 196 221 245 267 253 237 229 236 243 233 200 192 200 203 203 212 209 193 184 177 175 180 182 178
343 340 318 282 275 276 269 272 285 296 313 335 11 45 45 16 350 326 317 301 272 296 303 298 302 305 301 288 280 311 293 264 297 285 232 197 208 252 247 223 200 187 204 213 298 251 282 301 245 233 234 201 199 198 202 228 240 230 203 185 208 214 183 175 186 201 216 254 250 225 213 200 195 223 201 189 198 199 202 213 206 188 176 169 173 179 179 178
344 332 316 286 269 275 267 255 257 281 311 359 53 44 25 357 304 334 324 273 273 289 289 291 294 298 300 285 301 0 172 251 340 336 254 213 208 228 231 217 204 194 163 153 230 220 259 268 251 262 266 238 219 205 205 222 248 254 184 195 216 201 196 221 210 203 188 222 257 216 203 216 208 220 197 187 198 198 206 215 200 185 172 162 170 178 178 178
348 338 319 285 278 282 255 217 206 242 310 37 56 5 357 279 283 336 307 281 304 316 308 303 287 276 307 323 329 330 191 240 332 338 253 237 233 223 219 219 198 188 175 168 214 194 33 274 276 295 290 270 250 236 211 180 208 307 163 205 218 201 232 284 266 252 149 183 266 217 205 272 293 216 208 200 201 204 212 215 201 186 165 159 171 176 178 178
348 347 329 299 304 289 217 181 175 193 43 63 39 326 280 257 267 270 295 298 313 326 322 320 333 310 318 316 304 313 297 262 281 281 257 259 256 234 225 233 201 191 189 177 196 201 165 277 286 282 281 287 261 237 234 186 182 131 158 240 1 209 241 265 278 296 43 178 277 231 197 249 172 211 238 210 198 215 221 213 205 188 163 163 175 177 179 178
340 338 320 309 331 194 181 173 166 137 59 61 316 310 261 243 251 232 284 309 317 330 321 301 317 343 328 322 302 313 320 306 295 291 273 253 274 249 225 231 212 201 194 174 177 237 167 291 289 273 294 311 303 196 265 253 195 166 195 306 47 199 237 228 216 270 216 184 293 298 241 234 194 218 248 204 198 213 218 210 204 190 171 169 176 178 178 175
343 344 333 334 2 153 169 171 150 77 50 20 306 301 254 259 278 212 165 0 339 326 306 275 286 319 315 305 294 310 317 298 303 307 281 137 276 259 235 227 221 210 194 174 178 234 148 72 289 310 339 320 319 101 173 251 196 162 231 308 93 174 221 202 206 217 167 180 253 294 302 266 235 218 203 219 217 201 195 198 198 189 181 176 175 177 177 172
2 24 342 8 75 146 160 163 90 57 16 284 249 258 268 287 305 105 130 70 32 265 276 283 286 300 291 281 292 306 299 273 290 306 285 217 282 280 274 291 305 228 191 179 184 220 98 87 260 308 331 336 338 245 186 187 164 153 197 197 169 265 306 281 259 239 159 151 180 196 292 264 254 218 206 236 234 202 187 184 191 192 185 179 174 175 174 173
1 62 330 10 103 162 132 83 34 66 228 268 253 255 288 309 310 305 135 75 31 218 227 262 267 274 279 282 303 308 299 283 280 287 278 257 265 286 290 349 355 332 180 172 181 183 124 108 194 304 323 325 275 284 249 113 220 178 186 190 186 214 52 46 287 274 172 160 174 154 245 266 266 283 258 245 225 204 190 179 183 191 186 179 174 174 173 171
7 82 330 4 15 204 53 20 291 295 232 299 315 296 314 321 306 305 52 43 342 236 223 258 261 264 281 289 303 303 304 296 281 283 288 279 267 250 272 331 323 309 257 144 163 162 132 122 119 274 268 257 265 268 238 339 306 308 284 238 193 181 145 148 245 302 314 287 196 130 209 259 278 342 321 268 232 209 189 178 181 185 185 178 171 171 170 169
32 268 315 9 13 272 48 15 312 352 319 311 327 315 314 311 291 309 330 314 300 246 225 263 257 244 271 290 297 301 318 300 273 269 284 292 287 269 285 313 302 285 206 123 123 344 65 113 0 289 282 280 273 262 129 86 335 324 292 260 219 199 170 171 220 283 301 295 15 66 284 265 307 348 338 303 287 254 180 173 173 174 178 170 160 164 167 169
328 263 274 354 358 2 68 27 320 338 324 328 335 322 311 287 280 304 301 268 277 266 261 272 249 235 260 285 279 282 319 301 268 275 275 282 292 285 296 312 311 300 119 108 143 241 307 323 87 14 345 349 349 357 37 30 263 239 263 265 251 234 211 232 279 306 295 272 121 92 262 263 308 341 342 338 339 338 187 169 163 164 171 164 153 158 164 166
318 284 253 333 350 17 91 89 329 331 334 340 331 315 310 296 292 297 282 268 253 231 263 282 273 262 262 285 282 273 254 214 241 313 295 261 285 288 304 325 333 41 108 107 100 110 148 171 110 92 111 118 101 201 105 352 271 248 271 279 276 258 228 220 301 6 322 294 2 60 276 280 320 338 340 347 355 353 343 202 155 153 156 153 147 155 163 165
351 0 316 326 352 30 69 133 42 14 343 344 326 309 313 313 311 301 262 270 273 260 262 268 276 276 279 310 307 298 271 210 222 284 291 284 294 288 301 315 333 82 113 121 116 98 101 169 158 146 179 199 222 238 239 11 321 305 303 299 300 281 231 181 71 29 233 312 351 357 314 318 327 330 334 340 347 353 353 358 63 99 106 123 139 154 163 167
34 31 4 340 330 2 8 3 20 2 324 325 313 296 310 321 331 338 240 217 305 309 281 238 252 290 309 320 316 303 302 275 252 256 265 271 272 275 291 300 115 124 126 130 138 112 77 327 222 169 206 238 239 254 276 317 298 291 307 305 303 307 318 90 84 236 212 357 323 310 357 4 315 314 327 331 330 341 359 6 21 59 79 99 135 147 151 157
28 73 87 34 307 331 350 327 332 327 310 303 273 284 324 338 346 344 317 283 308 313 277 270 298 311 313 316 312 287 311 310 283 266 280 288 300 307 314 345 84 123 129 124 137 117 94 268 244 180 235 249 241 253 264 276 276 274 293 294 293 313 348 48 271 259 128 107 249 280 9 18 296 307 323 327 323 324 345 2 20 60 75 76 94 128 138 142
22 324 346 51 316 270 277 289 302 308 308 312 311 328 341 343 339 333 321 313 315 319 358 315 313 319 318 314 298 258 306 313 296 297 331 324 325 330 338 5 23 31 67 95 148 98 101 238 254 274 285 272 260 259 250 257 295 293 301 307 322 340 337 309 263 5 88 108 219 266 4 302 282 314 320 321 322 320 2 29 34 44 66 81 82 92 118 137
26 317 329 342 279 275 267 285 306 304 305 332 345 335 339 339 333 331 324 310 306 319 339 320 312 316 315 312 307 268 272 285 281 269 278 306 315 308 309 7 340 357 18 38 311 325 327 254 271 344 334 302 319 355 352 324 266 300 316 332 354 351 330 318 10 84 88 91 221 97 43 293 303 328 310 317 343 8 30 37 36 37 49 70 78 76 79 92
353 319 325 308 290 312 306 310 329 315 311 356 354 332 335 335 330 327 316 289 280 306 322 313 311 315 312 310 316 307 292 285 274 260 251 251 260 262 262 262 326 8 16 13 327 335 331 280 312 46 45 307 330 10 349 350 77 16 334 345 349 329 297 311 38 43 114 164 194 97 75 286 296 311 304 329 10 27 33 30 28 33 40 54 65 66 66 68
345 328 327 297 281 322 330 323 335 332 320 340 336 326 321 317 320 325 319 302 301 311 312 309 311 315 314 315 319 316 308 294 279 269 252 233 236 245 252 262 263 275 334 99 21 319 208 215 336 42 49 290 308 355 341 18 48 7 319 330 313 198 117 88 40 13 12 46 167 126 132 238 269 296 318 350 11 27 33 25 21 26 32 49 61 62 63 64
Height
849 848 846 845 843 842 840 839 837 835 834 832 831 829 828 826 824 823 822 820 819 817 816 814 813 811 809 807 804 802 799 794 789 786 786 778 774 774 774 775 775 775 776 775 775 775 773 773 772 773 773 771 771 768 767 766 765 767 770 775 770 760 751 741 743 744 743 743 738 736 733 738 740 733 727 726 729 730 730 727 725 724 720 719 719 722 728 734
848 847 845 844 843 841 839 837 836 834 833 831 830 828 826 825 823 822 821 819 818 817 815 813 812 811 809 807 804 802 798 794 790 785 780 775 774 774 773 774 774 775 775 775 774 774 774 772 771 772 773 772 769 766 767 763 762 765 764 767 760 748 740 736 738 737 737 740 737 734 732 733 735 732 727 730 733 729 731 735 732 730 727 725 725 726 729 732
848 846 845 843 842 840 838 836 835 833 831 830 828 827 825 824 822 821 820 818 817 816 814 813 812 810 809 807 804 802 798 794 789 780 775 774 774 774 773 774 774 774 775 774 773 773 773 771 771 772 773 773 768 766 766 761 760 759 760 762 748 738 739 735 735 735 733 734 736 735 730 730 729 726 726 729 732 729 732 735 735 737 734 732 732 730 732 734
847 845 843 842 840 838 837 835 833 832 830 829 827 826 824 822 821 819 818 817 816 814 813 812 810 809 808 806 804 802 800 794 784 775 773 774 773 773 774 773 773 773 774 773 772 772 771 771 772 772 773 773 768 765 764 760 758 755 754 753 739 736 741 735 734 734 731 730 733 734 732 732 726 723 724 727 733 733 731 728 726 731 731 731 733 733 733 735
846 844 842 841 839 837 836 834 832 830 829 827 825 824 822 821 819 818 817 815 814 813 811 810 809 808 807 806 804 802 801 790 777 773 773 773 772 773 773 773 773 773 773 773 772 771 771 771 771 772 773 773 770 767 762 756 755 754 748 743 737 737 739 735 734 733 730 729 730 732 733 731 725 724 723 725 733 730 724 721 717 719 720 722 727 730 732 735
845 843 841 839 838 836 834 833 831 829 827 825 824 822 820 819 817 816 815 813 813 811 810 809 808 807 805 805 803 802 802 786 772 774 773 772 772 772 773 773 773 772 772 773 772 771 771 770 772 774 773 771 771 767 761 754 754 756 746 738 737 737 737 734 732 731 730 730 731 729 726 725 726 727 721 722 725 717 712 713 713 712 711 713 718 724 730 734
844 842 840 838 836 835 833 831 829 827 825 824 822 820 819 817 816 815 813 812 811 810 809 808 807 806 804 804 801 801 803 787 772 773 772 771 772 771 772 772 772 772 771 772 771 772 771 771 772 772 772 771 769 764 761 755 752 753 746 738 737 736 736 733 730 730 729 729 728 725 723 724 727 727 720 720 716 709 707 707 708 708 706 710 715 720 725 728
843 841 839 837 835 833 831 829 827 825 823 822 820 818 817 815 814 813 811 811 809 808 807 806 806 805 804 803 801 801 798 783 770 771 771 771 771 770 771 771 771 770 770 771 770 771 770 771 771 769 771 769 765 761 758 757 752 748 744 739 737 735 734 732 730 729 728 727 725 726 726 723 721 723 721 719 713 706 705 704 704 707 709 711 715 718 721 725
841 840 837 836 833 831 830 827 825 823 821 820 818 816 814 813 812 810 809 808 807 807 805 805 805 804 804 802 804 801 785 772 769 770 771 770 770 770 770 770 770 769 769 769 768 769 770 771 769 767 769 766 763 760 756 758 753 744 741 739 737 736 733 731 729 726 726 726 726 727 728 721 716 722 721 714 709 704 704 705 704 708 713 714 715 717 720 724
840 838 836 834 832 830 828 826 823 821 819 817 815 813 812 811 810 808 807 806 805 805 803 804 803 802 804 801 805 801 775 766 770 769 769 770 769 769 769 769 769 768 768 767 767 768 768 769 767 765 766 764 762 760 756 755 749 741 740 738 735 734 730 730 728 723 723 723 724 727 728 722 716 723 723 710 703 703 705 707 706 709 713 714 717 718 719 722
839 837 835 833 831 828 826 824 821 819 817 814 812 811 809 808 807 805 804 804 803 802 802 802 801 802 802 800 806 796 770 766 769 767 768 768 767 768 767 768 768 768 767 767 766 766 766 766 765 765 766 764 761 760 754 750 747 742 741 738 733 731 728 728 727 723 721 720 719 722 726 723 718 721 718 708 704 703 707 710 709 710 711 714 718 719 720 721
838 836 833 831 829 827 824 822 819 818 814 812 810 807 807 805 804 803 801 801 800 800 800 800 800 800 800 800 798 782 766 767 767 765 765 764 765 765 765 766 766 766 766 765 765 763 764 764 764 767 766 764 764 762 754 748 749 745 742 742 736 731 728 724 723 721 721 719 714 719 730 727 718 715 709 705 705 704 709 711 709 710 710 713 717 719 720 720
837 834 832 830 828 825 823 820 818 815 812 810 807 804 803 801 799 799 797 798 797 797 797 798 798 798 800 796 780 768 766 767 766 764 761 762 763 762 763 764 763 764 764 763 763 762 763 762 763 765 764 765 765 762 754 748 750 747 742 742 740 737 730 720 719 720 719 716 710 719 736 729 714 708 704 704 705 706 712 712 709 709 709 712 715 717 718 719
835 833 831 828 826 824 821 819 816 813 810 807 804 801 799 796 795 794 793 793 792 794 795 796 797 797 799 788 768 765 767 765 765 761 758 760 761 760 760 761 761 761 762 761 761 760 761 761 762 763 762 764 763 760 757 752 750 748 745 740 739 742 733 718 715 718 719 713 707 718 733 726 712 706 701 701 703 705 711 713 711 710 710 712 714 716 717 717
834 832 830 827 825 822 820 817 814 811 808 805 801 798 795 792 789 788 789 788 789 792 792 794 795 795 797 784 766 764 765 764 763 758 757 759 760 760 758 759 759 759 760 759 758 758 759 760 762 763 762 761 760 761 761 757 751 748 750 745 738 738 733 719 711 713 716 711 707 718 729 722 711 705 699 699 702 702 706 711 711 711 711 712 714 716 717 717
833 831 828 826 823 820 818 815 813 810 806 803 799 794 791 788 785 784 783 784 787 789 791 794 792 794 796 782 765 763 762 761 759 756 757 758 759 759 757 757 757 757 757 757 756 756 756 758 760 761 760 760 762 764 764 763 756 748 750 750 740 736 733 724 712 706 710 711 707 713 722 718 708 702 698 697 699 700 702 707 709 710 711 712 714 715 716 718
832 829 827 824 822 819 816 814 811 808 804 801 797 792 787 785 783 781 780 782 785 786 790 790 790 795 789 773 766 762 759 758 757 756 755 755 756 755 755 756 755 755 754 754 754 753 754 757 758 759 758 759 760 762 767 769 761 751 749 749 743 736 732 727 717 705 704 711 708 708 715 714 704 698 697 695 696 699 700 703 706 709 711 711 712 714 716 718
831 828 826 823 820 817 815 812 810 807 803 799 796 792 787 785 783 781 780 782 785 788 791 789 793 794 777 766 767 761 756 757 756 756 754 753 754 753 754 755 754 754 754 754 754 753 755 755 756 759 758 758 758 760 767 764 755 752 748 746 742 735 730 726 719 707 702 709 709 709 714 712 703 697 696 694 693 696 699 699 701 705 711 712 712 714 715 717
830 827 824 822 819 816 813 810 808 806 803 797 794 791 787 785 784 782 782 784 786 787 788 787 790 786 767 760 763 758 756 758 755 754 752 750 751 752 753 753 753 753 755 758 757 755 756 756 757 761 761 760 757 755 759 756 751 750 746 742 739 734 728 720 713 704 700 708 709 709 713 711 705 698 696 695 692 693 697 697 697 700 706 712 713 713 714 716
829 826 823 820 818 814 811 808 806 804 802 798 794 790 788 788 787 786 784 784 784 781 779 778 779 775 764 759 758 758 758 756 754 752 749 748 749 751 753 753 753 754 755 758 758 754 755 760 761 760 760 757 754 751 751 750 749 748 745 744 739 734 726 714 708 701 698 707 708 704 710 709 704 699 694 695 695 693 694 697 698 697 700 709 712 712 713 714
828 825 822 819 816 813 810 806 803 802 801 798 796 794 793 794 795 793 787 780 774 774 773 770 771 769 763 758 756 758 760 755 752 749 748 748 746 750 753 752 754 756 755 755 756 754 755 762 760 754 753 751 750 749 748 748 747 745 745 744 741 737 729 712 704 698 695 706 707 701 708 709 703 699 693 692 695 695 693 695 698 698 697 703 709 710 711 711
827 824 821 818 815 812 808 805 802 800 799 798 796 796 795 795 795 794 790 781 769 767 768 765 767 765 758 757 755 758 762 759 754 747 744 745 745 749 750 750 753 754 753 754 756 759 761 762 756 750 748 747 747 746 746 746 745 745 744 744 742 736 730 715 701 696 695 703 707 702 706 708 702 699 694 690 691 693 692 692 694 696 696 700 706 709 709 711
826 823 819 817 814 810 805 803 800 798 798 797 796 796 795 794 792 790 790 787 773 762 762 762 764 762 757 756 752 755 760 758 754 747 742 744 744 746 747 749 752 752 753 754 757 763 764 758 749 746 745 745 746 744 745 744 742 744 743 745 743 734 734 726 706 698 696 698 702 701 706 707 702 701 696 690 687 687 689 690 690 691 692 695 700 704 706 710
825 821 818 815 812 808 804 800 799 798 797 796 795 795 794 792 791 790 788 789 782 767 758 757 759 759 756 752 749 753 755 751 749 745 741 741 742 744 745 747 750 752 752 751 753 758 757 749 743 743 742 742 744 743 743 744 741 740 739 741 739 731 732 729 714 703 697 695 695 699 713 712 703 703 699 691 690 687 686 688 690 689 688 690 696 700 702 704
823 820 817 813 810 806 801 799 798 797 796 795 794 794 794 792 790 789 789 792 787 769 757 754 755 754 751 749 748 749 749 747 744 741 740 741 743 745 745 746 750 753 751 750 752 754 749 743 740 741 739 738 741 741 740 740 741 739 735 732 732 729 727 724 720 715 711 707 696 699 723 722 703 702 700 694 694 691 687 688 690 690 689 690 696 700 700 701
821 818 815 811 809 805 800 799 797 796 795 794 794 793 792 791 789 787 791 797 785 763 755 754 753 753 750 749 747 746 749 746 740 739 740 742 743 744 746 747 748 750 749 749 752 750 743 738 738 739 738 736 738 739 735 735 739 738 729 724 725 725 725 722 723 726 724 716 698 693 716 723 709 703 698 694 695 693 690 689 689 690 690 690 695 698 698 700
819 816 812 809 807 804 802 800 797 797 795 793 793 792 791 790 789 787 790 793 778 758 755 755 752 752 750 748 746 748 752 746 739 740 741 743 743 742 746 747 747 747 744 747 752 745 736 735 737 736 736 735 735 736 731 729 736 732 721 720 721 720 722 721 722 727 723 715 705 693 701 717 715 703 694 693 695 694 691 690 688 689 688 689 692 695 695 696
817 813 810 807 805 804 803 800 798 797 795 794 792 791 791 789 788 789 788 781 767 756 755 754 751 750 749 747 746 748 748 743 744 744 740 742 742 741 744 743 744 745 741 747 751 740 732 735 735 734 735 733 730 728 725 725 730 724 716 717 717 716 717 716 719 723 717 717 719 704 698 713 714 699 690 691 694 695 692 688 685 685 686 686 689 692 691 691
814 811 808 805 803 802 801 800 799 797 794 793 792 790 790 789 787 790 788 776 763 757 755 753 751 749 748 748 747 746 744 742 745 744 740 741 739 740 742 739 739 741 739 742 744 736 731 731 730 731 733 730 724 720 717 721 722 715 714 716 713 713 712 712 717 719 717 722 725 711 701 710 712 699 692 692 692 691 689 685 680 679 681 683 685 688 688 688
811 808 806 804 802 801 801 799 797 795 794 792 792 790 788 788 788 788 785 775 764 758 755 753 753 751 750 751 750 746 744 743 742 742 741 740 738 738 738 736 736 739 739 739 739 735 729 727 728 728 728 725 721 717 712 714 714 710 715 719 717 714 709 710 712 714 723 727 718 707 701 706 710 699 688 685 682 681 682 682 677 675 677 679 682 685 685 686
808 805 804 802 801 800 800 798 795 794 794 792 791 789 787 790 791 788 780 769 763 761 758 757 757 753 752 755 754 747 744 744 743 744 743 740 740 740 738 739 739 742 744 742 740 735 728 727 727 723 720 719 719 717 711 707 707 709 716 721 723 718 711 714 714 716 731 730 712 701 698 704 707 693 680 675 669 670 674 675 673 673 674 676 679 681 681 682
805 803 802 801 800 799 798 796 795 794 794 792 790 789 789 789 789 787 777 766 766 767 764 762 759 755 755 755 754 749 746 745 742 743 743 741 742 741 740 742 742 747 750 746 742 734 727 725 722 718 715 714 718 719 713 707 705 708 714 721 730 727 721 726 725 723 730 723 705 696 698 703 695 678 671 670 665 663 665 664 665 668 670 672 676 678 678 679
803 801 800 800 798 798 796 795 795 794 794 792 791 791 791 790 785 781 777 772 772 769 764 763 758 756 757 755 752 750 747 745 741 741 741 740 741 740 739 737 736 742 746 745 744 737 728 721 715 716 713 707 712 717 716 712 706 708 712 720 731 733 732 736 732 727 727 715 697 690 696 701 687 667 661 661 659 657 657 656 657 660 665 669 672 674 675 677
801 800 799 798 797 796 795 795 795 794 794 793 793 792 793 792 784 777 777 777 773 767 766 764 760 758 755 752 753 751 749 746 742 742 740 740 744 743 739 735 733 736 739 743 744 738 736 729 716 713 711 703 705 710 710 706 703 703 704 710 720 724 727 732 728 724 722 711 695 690 696 695 681 663 652 650 651 651 651 651 651 655 660 664 668 670 672 675
800 799 797 796 796 795 795 795 794 795 795 793 795 795 794 793 786 781 782 779 774 771 769 764 762 762 755 749 754 754 751 749 744 744 743 741 745 743 737 733 731 733 736 743 742 736 739 732 714 707 705 701 702 702 699 700 704 700 697 706 714 710 712 718 714 707 707 705 697 690 686 676 664 652 642 643 649 649 649 648 649 655 658 662 666 668 671 673
798 797 795 794 794 794 794 795 794 795 795 794 798 797 793 789 784 782 781 776 775 775 772 764 761 763 757 751 754 753 750 749 747 747 745 741 740 736 731 727 725 727 732 738 737 733 736 728 712 707 704 698 700 699 694 698 704 702 702 708 704 696 702 714 711 699 698 705 697 685 677 666 661 655 642 641 648 649 649 648 648 652 657 662 665 666 669 671
797 795 795 793 793 793 793 794 794 795 795 797 801 796 789 785 781 779 777 775 775 776 776 771 762 761 761 757 755 751 749 749 748 747 745 742 735 728 726 722 719 721 723 727 729 728 732 727 712 708 706 697 694 695 694 692 697 705 710 705 696 694 698 708 715 708 703 706 695 681 676 670 670 665 650 646 651 651 650 649 648 651 655 660 662 663 665 667
798 796 795 793 793 793 793 794 795 795 796 799 801 794 788 784 778 775 776 776 777 779 780 776 766 761 763 763 757 751 749 749 747 745 744 742 733 722 721 719 714 715 716 720 726 724 728 729 715 707 707 700 692 696 700 694 692 700 704 698 700 712 711 707 716 716 708 707 697 683 678 674 670 662 650 649 651 650 650 649 649 650 654 658 659 660 662 665
799 797 795 794 793 792 794 795 794 796 798 800 801 795 786 780 774 773 776 776 777 780 780 775 769 764 763 762 757 752 751 749 746 744 742 741 733 719 716 716 711 712 713 718 724 722 723 730 722 708 706 703 696 699 705 702 696 696 699 699 701 711 713 707 707 706 701 703 700 689 681 674 663 652 645 645 643 644 647 648 648 648 650 653 656 658 661 664
800 799 797 795 795 794 794 795 795 799 800 799 799 794 785 779 773 772 775 774 774 778 778 775 772 769 764 759 754 752 754 751 747 745 742 740 735 722 714 712 711 710 711 715 720 719 720 729 729 716 708 706 704 703 704 703 702 701 706 709 707 706 706 704 700 692 690 696 697 692 688 672 652 643 640 638 638 641 641 641 644 645 645 648 651 654 658 661
803 802 799 797 797 796 796 797 797 801 801 798 796 791 783 778 773 770 772 772 772 773 773 772 771 770 765 759 756 755 754 751 746 746 744 739 736 728 716 711 711 710 711 714 717 717 720 728 732 727 719 713 708 703 699 699 701 702 705 706 705 704 705 710 706 687 679 688 690 691 690 668 646 644 642 633 632 635 634 635 639 640 641 644 647 650 653 658
806 803 800 798 798 797 798 800 799 799 799 795 791 787 781 778 773 770 770 771 771 770 770 769 767 766 764 761 760 758 755 752 746 744 744 738 734 729 717 711 711 710 712 716 717 715 717 724 730 729 722 715 707 698 696 699 700 700 701 699 697 698 702 712 711 692 683 684 680 686 687 665 648 652 651 638 629 627 628 630 633 636 637 641 645 648 650 654
811 807 800 797 798 797 799 804 802 801 799 793 789 786 782 779 774 770 770 771 771 771 771 768 764 763 762 760 761 760 758 753 743 741 744 739 730 722 715 713 712 709 710 715 716 716 717 722 728 727 716 706 700 694 694 700 702 702 702 696 692 693 694 698 699 695 694 687 680 689 689 664 649 653 654 646 633 625 626 626 628 633 636 639 645 648 651 654
815 811 803 798 798 796 802 809 809 807 803 797 794 790 784 779 775 771 771 771 769 770 770 767 763 762 759 757 758 758 758 755 743 737 740 739 730 718 714 713 709 707 709 712 715 717 720 725 729 727 718 708 706 705 703 704 705 704 701 694 689 689 690 691 691 691 695 689 683 691 690 669 655 655 656 653 640 630 629 627 626 631 636 640 645 648 651 655
814 810 804 801 799 798 804 810 811 811 809 805 802 795 786 780 774 771 771 769 767 768 768 764 761 759 757 757 757 754 755 756 749 740 737 737 730 718 713 712 708 707 709 711 714 717 723 731 731 729 724 719 719 718 714 710 707 702 698 693 689 688 688 692 694 695 697 691 684 691 694 680 666 661 662 661 651 640 636 632 629 631 635 640 645 648 651 653
815 814 812 809 803 802 808 809 810 813 813 812 807 795 787 783 775 771 771 769 766 765 764 762 758 757 757 758 758 753 751 752 749 745 742 739 732 721 714 713 711 710 710 712 716 719 726 732 731 729 727 722 721 719 713 713 713 708 705 700 693 689 686 687 694 697 697 691 688 696 700 690 678 674 672 670 665 654 646 642 637 636 639 643 646 648 649 651
820 823 826 823 813 809 810 809 811 815 815 815 810 796 789 787 780 774 771 768 766 764 762 760 758 759 759 759 759 755 750 748 746 744 742 737 732 726 717 711 711 712 712 715 717 720 727 728 725 727 727 722 720 718 713 714 714 710 709 704 698 692 687 688 694 694 690 692 696 698 700 696 691 687 681 676 672 664 656 651 646 643 645 647 648 649 651 653
826 828 830 831 826 822 819 815 814 816 814 811 805 796 791 790 787 783 776 768 765 764 763 761 758 758 757 757 760 758 750 747 743 739 738 735 732 730 720 712 712 713 715 719 719 721 727 726 721 723 724 719 716 714 711 710 709 706 705 703 699 696 692 692 694 690 688 696 701 698 698 701 697 691 684 679 675 669 662 657 653 649 648 649 652 653 654 657
830 831 829 830 831 830 827 822 819 818 813 806 801 797 796 795 792 789 781 773 768 764 764 765 759 755 751 751 757 758 752 748 744 740 739 737 735 733 726 719 718 716 717 722 722 722 725 723 720 722 721 714 710 708 705 704 704 703 701 698 696 696 694 691 693 694 694 699 703 699 698 701 697 692 688 681 676 670 663 659 657 654 652 653 655 658 659 660
834 834 832 831 830 828 826 822 820 818 812 806 804 802 800 799 796 789 783 780 776 768 765 766 761 754 751 748 751 754 750 748 747 743 740 739 738 735 730 726 723 720 722 725 724 723 723 720 720 723 718 709 705 702 699 700 702 702 699 694 692 695 696 692 694 699 699 699 702 701 701 701 696 692 690 683 676 670 665 663 663 661 659 657 659 662 663 664
835 835 833 833 831 827 824 822 821 819 812 809 810 806 802 801 798 792 784 777 774 771 768 766 761 755 751 748 746 746 743 743 743 739 737 738 737 733 729 726 726 725 727 728 726 724 723 719 720 722 716 707 705 704 699 695 696 698 697 693 693 697 698 697 698 700 698 698 700 701 704 703 696 693 690 684 678 673 670 670 670 667 664 662 664 666 667 667
835 834 832 833 832 827 825 825 823 821 816 812 813 810 806 803 798 795 788 775 767 768 767 764 761 757 753 748 743 741 738 737 736 732 731 732 732 730 728 726 725 726 728 729 727 728 728 722 720 722 715 707 708 708 700 695 699 702 700 698 699 697 696 698 701 702 702 702 700 698 699 699 696 694 690 685 681 678 676 676 675 674 672 668 668 669 670 671